User: anonymous   Login
Location: Caltech
(34.1382°N, 118.1253°W)
Time: 13:10:34
(UTC-08:00)
Language:

Saudisat 1A - Orbit

View from above orbital plane
View from above orbital plane
View from above satellite
View from above satellite

Ground track
Ground track

The orbit data is extracted from the following two-line orbital elements,

1 26546U 00057B   16039.27517044  .00001177  00000-0  13552-3 0  9999
2 26546  64.5544  83.9100 0046420 285.6748  73.9243 14.90048374832900
Epoch (UTC): 08 February 2016 06:36:14
Eccentricity: 0.0046420
inclination: 64.5544°
perigee height: 565 km
apogee height: 630 km
right ascension of ascending node: 83.9100°
argument of perigee: 285.6748°
revolutions per day: 14.90048374
mean anomaly at epoch: 73.9243°
orbit number at epoch: 83290

The dashed part of the orbit path shows where the satellite is in the earth's shadow,  

DLR